STARLINK-11300, 61243

Orbit data source: Space-Track

STARLINK-11300, 61243 is a payload satellite owned by SpaceX/Seattle (US) in LEO that was launched on Wed, 25 Sep 2024 UTC via an FALCON 9 launch vehicle from the Air Force Western Test Range (AFWTR). Payload-class satellites include a variety of spacecraft equipped with specific instruments for various scientific and technological missions. These include communications satellites like Starlink; space stations such as the ISS; scientific satellites like the Hubble; Earth observation satellites from companies like Planet Labs, Umbra, and HawkEye 360; GPS; miniature CubeSats for education and research; and military/defense satellites.

Loading next visibility...
Identifier
61243, 2024-175A
Orbit
LEO
Country
Flag of USUS
Related business
Manufacturer
SpaceX/Seattle
Mission
Operational Commercial Communications
Bus & Motor
STARLINK V2MD, Unknown motor
Mass
960 kg wet, ~910 kg dry
Launch date (UTC)
2024-09-25 (1 year ago)
Launch vehicle
FALCON 9
Launch site
Air Force Western Test Range (AFWTR)
Object type
Payload
Rocket body
Debris
Shape & HBR
Box + 2 Pan, 18.1 m
Radar Cross Section
36.964 m², Large (>1 m²)

Expand to show TLE details & history
Last TLE update: 10 hours ago

TLE from 10 hours ago
0 STARLINK-11300
1 61243U 24175A   25346.89240086  .00004904  00000-0  45275-4 0  9996
2 61243  53.1581 124.1736 0000895  69.4607 290.6506 15.69726907 69734
Epoch: 2025-12-12T21:25Z
TLE epoch observation values (Epoch: 2025-12-12T21:25:03.434Z)
Latitude
-0.00008°
Longitude
81.08173°
Altitude
360.381 km
Speed
7.694 km/s
True Right ascension
08h 16m 41s
True Declination
0° 00' 00"
Sunlit
Object was in full shadow at epoch
Visualization orbit readout
Latitude
Unknown
Longitude
Unknown
Altitude
Unknown
Speed
Unknown
Apparent Right ascension
Unknown
Apparent Declination
Unknown
Sunlit
N/A
Visualization observer readout
Local Sidereal Time
05:23:37
Azimuth
Unknown
Elevation
Unknown
Doppler factor
Unknown
Orbital elements
Apogee altitude
360.542 km
Perigee altitude
359.336 km
Semi-major axis
6,738.076 km
Eccentricity
0.00009
Inclination
53.1581°
RAAN
124.1736°
Arg. of periapsis
69.4607°
True anomaly
290.641°
Mean anomaly
290.6506°
Eccentric anomaly
290.6458°
Mean motion
3.92409 °/min
Orbital period
91.74 mins
BSTAR
0.000045275
Loading maneuver chart data...
Computing Atmospheric mass density...
Loading historical data...
Loading historical data...
Loading historical data...
Loading historical data...
Loading historical data...
Loading historical data...
Loading historical data...

Documentation

Showing up to 5 results
|